DECAYED
Showing default

GEARRS-3, 51097 (Decayed)

Orbit data source: Space-Track

GEARRS-3, 51097 was an American payload satellite in LEO that was launched on Thu, 13 Jan 2022 UTC via an LAUNCHERONE launch vehicle from the Pegasus Launch, Western Range Air Space (WRAS). Payload-class satellites include a variety of spacecraft equipped with specific instruments for various scientific and technological missions. These include communications satellites like Starlink; space stations such as the ISS; scientific satellites like the Hubble; Earth observation satellites from companies like Planet Labs, Umbra, and HawkEye 360; GPS; miniature CubeSats for education and research; and military/defense satellites.

Not visible in the next 10 days
Identifier
51097, 2022-003D
Orbit
Decayed
Last TLE update
11 months ago
Origin
Manufacturer
NearSpaceLaunch
Mission
Decayed Commercial Communications
Bus & Motor
CUBESAT 3U, Unknown motor
Mass
4 kg wet, 4 kg dry
Launch date (UTC)
2022-01-13 (3 years ago)
Launch vehicle
LAUNCHERONE
Launch site
Pegasus Launch, Western Range Air Space (WRAS)
Object type
Payload
Rocket body
Debris
Shape & HBR
Box, 0.3 m
Radar Cross Section
0.035 m², Small (<0.1 m²)

Expand to show TLE details & history

TLE from 11 months ago
0 GEARRS-3
1 51097U 22003D   24220.71171408  .13367639  10692-4  32982-3 0  9995
2 51097  44.9127  23.7043 0008286 294.0535  65.9524 16.45547106144304
Epoch: 2024-08-07T17:04Z
TLE epoch observation values (Epoch: 2024-08-07T17:04:52.096Z)
Latitude
-0.00003°
Longitude
170.7763°
Altitude
148.876 km
Speed
7.82 km/s
True Right ascension
01h 34m 49s
True Declination
0° 00' 00"
Sunlit
Object was in full shadow at epoch
Visualization orbit readout
Visualization observer readout
Orbital elements
Apogee altitude
158.206 km
Perigee altitude
147.382 km
Semi-major axis
6,530.931 km
Eccentricity
0.00083
Inclination
44.9127°
RAAN
23.7043°
Arg. of periapsis
294.0535°
True anomaly
Unknown
Mean anomaly
65.9524°
Eccentric anomaly
Unknown
Mean motion
4.11226 °/min
Orbital period
87.54 mins
BSTAR
0.00032982
Loading maneuver chart data...
Loading SW <> Apogee altitude chart data...
Loading historical data...
Loading historical data...
Loading historical data...
Loading historical data...
Loading historical data...
Loading historical data...
Loading historical data...

GEARRS-3 Visibility

Observer location: undefined°, undefined°

This satellite is decayed
Span
Click to sort rows by Start time (UTC) header in descending order
Start Az.
Max El. time (UTC)
Max El. Az.
Max El.
End time (UTC)
End Az.
|